User: anonymous   Login
Location: Unspecified
(0.0000°N, 0.0000°E)
Time: 20:18:00
(UTC+00:00)
Language:

STARLINK-1169 - Orbit

View from above orbital plane
View from above orbital plane
View from above satellite
View from above satellite

Ground track
Ground track

The orbit is defined by the following mean orbital elements,

1 45061U          26145.11965189 +.00000000 +00000-0 +15064-2 0 00005
2 45061  53.1573 284.2951 0003022 264.5291  95.5368 15.36792623    09
Epoch (UTC): 25 May 2026 02:52:17
Eccentricity: 0.0003022
inclination: 53.1573°
perigee height: 454 km
apogee height: 458 km
right ascension of ascending node: 284.2951°
argument of perigee: 264.5291°
revolutions per day: 15.36792623
mean anomaly at epoch: 95.5368°

The dashed part of the orbit path shows where the satellite is in the earth's shadow,  

DLR